COSMOS 2237

Satellite information

Favourite Embed

Satellite Type and Status

PAYLOADIN ORBIT

Key statistics

Satellite COSMOS 2237 at a glance.

Uptime

11729

Days in orbit

Revolutions

≈ 14.1

Per day

Orbit

LEO

Low Earth Orbit

Inclination

70.8

Latest

Satellite identification and parameters

Extended collection of information and parameters for COSMOS 2237.

Object identification

Identified? True

Debris? False

Object name: COSMOS 2237

International designator: 1993-016A

Object number (NORAD): 22565

Object ID (CCSDS): 22565

Country: COMMONWEALTH OF INDEPENDENT STATES (CIS)

Current information (Y/N): Y

RCS size: LARGE

Orbital parameters

Period: 101.948 minutes

Inclination: 70.792 deg

SMA: 7229.031 km

Apoapsis: 854.18 km

Periapsis: 847.612 km

RAAN: 94.8998 deg

Eccentricy: 0.0004543

Argument of periapsis: 164.0724 deg

Mean anomaly: 196.0539 deg

Mean motion: 14.12481053 rev/day

Mean motion (dot): -0.00000248 rev/day2

B* drag term: -0.00010775 1/REarth

Two-line elements (TLE)

Creation date: May 6, 2025, 3:54 a.m.

Reference frame: TEME

Reference center: EARTH

Epoch: May 5, 2025, 3:02 p.m. UTC

TLE line 0: 0 COSMOS 2237

TLE line 1: 1 22565U 93016A 25125.62649753 -.00000248 00000-0 -10775-3 0 9995

TLE line 2: 2 22565 70.7920 94.8998 0004543 164.0724 196.0539 14.12481053655800

Live tracking on map

Real-time ground track for satellite COSMOS 2237.

In-orbit conjunctions

A list of the most updated potential collisions computed for object COSMOS 2237.

Target Orbit TCA Probability of collision Miss distance Type
CZ-6A DEB SSO 2025-05-05 18:43:57 0.0001336306 911.0 (m) DEBRIS
CZ-4 DEB SSO 2025-04-02 23:59:23 0.001334624 136.0 (m) DEBRIS
COSMOS 1943 LEO 2025-02-23 05:27:55 0.0001124009 562.0 (m) PAYLOAD
FENGYUN 1C DEB SSO 2025-01-20 10:37:46 0.0003701132 354.0 (m) DEBRIS
COSMOS 1275 DEB LEO 2025-01-20 04:03:08 0.0002914333 606.0 (m) DEBRIS

Associated space launch

Second generation ELING satellite

COSMOS 2237 was lifted into orbit during the mission ‘Zenit-2 | Tselina-2 13’, on board a Zenit-2 space rocket.

The launch took place on March 26, 1993, 2:21 a.m. from 45/1.

For more information about the launch, click the button.

Launch to space Zenit-2 | Tselina-2 13
Zenit-2 | Tselina-2 13

Agency: N/A

Status: Launch Successful

Launch date: March 26, 1993, 2:21 a.m. UTC

Rocket: Zenit-2

Launch pad: 45/1

Location: Baikonur Cosmodrome, Republic of Kazakhstan

...

Latest news about this satellite

There are no fresh news available about this satellite. Check back as we update our databases every day.


Newsletter sign-up

Weekly statistics, charts and insights to help you stay on top of the space industry.